Time,TemperatureF,DewpointF,PressureIn,WindDirection,WindDirectionDegrees,WindSpeedMPH,WindSpeedGustMPH,Humidity,HourlyPrecipIn,Conditions,Clouds,dailyrainin,SolarRadiationWatts/m^2,SoftwareType,DateUTC
2013-01-25 00:21:00,26.0,23.0,-100.00,North,0,3.0,5.0,87,0.00,,,0.00,0.000000,,2013-01-25 07:21:00,
2013-01-25 00:32:00,26.0,23.0,-100.00,North,0,3.0,5.0,87,0.00,,,0.00,0.000000,,2013-01-25 07:32:00,
2013-01-25 00:42:00,26.0,23.0,-100.00,North,0,3.0,5.0,87,0.00,,,0.00,0.000000,,2013-01-25 07:42:00,
2013-01-25 00:51:00,26.0,23.0,-100.00,North,0,3.0,5.0,87,0.00,,,0.00,0.000000,,2013-01-25 07:51:00,
2013-01-25 01:21:00,26.0,23.0,-100.00,WSW,242,3.0,5.0,88,0.00,,,0.00,0.000000,,2013-01-25 08:21:00,
2013-01-25 01:32:00,26.0,23.0,-100.00,WSW,242,3.0,5.0,88,0.00,,,0.00,0.000000,,2013-01-25 08:32:00,
2013-01-25 01:41:00,26.0,23.0,-100.00,WSW,242,3.0,5.0,88,0.00,,,0.00,0.000000,,2013-01-25 08:41:00,
2013-01-25 01:52:00,26.0,23.0,-100.00,WSW,242,3.0,5.0,88,0.00,,,0.00,0.000000,,2013-01-25 08:52:00,
2013-01-25 02:21:00,26.0,23.0,-100.00,SW,222,4.0,7.0,88,0.00,,,0.00,0.000000,,2013-01-25 09:21:00,
2013-01-25 02:31:00,26.0,23.0,-100.00,SW,222,4.0,7.0,88,0.00,,,0.00,0.000000,,2013-01-25 09:31:00,
2013-01-25 02:42:00,26.0,23.0,-100.00,SW,222,4.0,7.0,88,0.00,,,0.00,0.000000,,2013-01-25 09:42:00,
2013-01-25 02:51:00,26.0,23.0,-100.00,SW,222,4.0,7.0,88,0.00,,,0.00,0.000000,,2013-01-25 09:51:00,
2013-01-25 03:21:00,26.0,23.0,-100.00,SW,230,4.0,8.0,87,0.00,,,0.00,0.000000,,2013-01-25 10:21:00,
2013-01-25 03:32:00,26.0,23.0,-100.00,SW,230,4.0,8.0,87,0.00,,,0.00,0.000000,,2013-01-25 10:32:00,
2013-01-25 03:42:00,26.0,23.0,-100.00,SW,230,4.0,8.0,87,0.00,,,0.00,0.000000,,2013-01-25 10:42:00,
2013-01-25 03:51:00,26.0,23.0,-100.00,SW,230,4.0,8.0,87,0.00,,,0.00,0.000000,,2013-01-25 10:51:00,
2013-01-25 04:22:00,25.0,22.0,-100.00,South,188,3.0,6.0,90,0.00,,,0.00,0.000000,,2013-01-25 11:22:00,
2013-01-25 04:32:00,25.0,22.0,-100.00,South,188,3.0,6.0,90,0.00,,,0.00,0.000000,,2013-01-25 11:32:00,
2013-01-25 04:42:00,25.0,22.0,-100.00,South,188,3.0,6.0,90,0.00,,,0.00,0.000000,,2013-01-25 11:42:00,
2013-01-25 04:52:00,25.0,22.0,-100.00,South,188,3.0,6.0,90,0.00,,,0.00,0.000000,,2013-01-25 11:52:00,
2013-01-25 05:22:00,25.0,23.0,-100.00,SSE,151,2.0,7.0,92,0.00,,,0.00,0.000000,,2013-01-25 12:22:00,
2013-01-25 05:32:00,25.0,23.0,-100.00,SSE,151,2.0,7.0,92,0.00,,,0.00,0.000000,,2013-01-25 12:32:00,
2013-01-25 05:42:00,25.0,23.0,-100.00,SSE,151,2.0,7.0,92,0.00,,,0.00,0.000000,,2013-01-25 12:42:00,
2013-01-25 05:53:00,25.0,23.0,-100.00,SSE,151,2.0,7.0,92,0.00,,,0.00,0.000000,,2013-01-25 12:53:00,
2013-01-25 06:22:00,24.0,23.0,-100.00,SW,224,2.0,5.0,94,0.00,,,0.00,0.000000,,2013-01-25 13:22:00,
2013-01-25 06:32:00,24.0,23.0,-100.00,SW,224,2.0,5.0,94,0.00,,,0.00,0.000000,,2013-01-25 13:32:00,
2013-01-25 06:42:00,24.0,23.0,-100.00,SW,224,2.0,5.0,94,0.00,,,0.00,0.000000,,2013-01-25 13:42:00,
2013-01-25 06:52:00,24.0,23.0,-100.00,SW,224,2.0,5.0,94,0.00,,,0.00,0.000000,,2013-01-25 13:52:00,
2013-01-25 07:23:00,24.0,22.0,-100.00,NNW,327,2.0,4.0,93,0.00,,,0.00,0.000000,,2013-01-25 14:23:00,
2013-01-25 07:32:00,24.0,22.0,-100.00,NNW,327,2.0,4.0,93,0.00,,,0.00,0.000000,,2013-01-25 14:32:00,
2013-01-25 07:42:00,24.0,22.0,-100.00,NNW,327,2.0,4.0,93,0.00,,,0.00,0.000000,,2013-01-25 14:42:00,
2013-01-25 07:52:00,24.0,22.0,-100.00,NNW,327,2.0,4.0,93,0.00,,,0.00,0.000000,,2013-01-25 14:52:00,
2013-01-25 08:22:00,26.0,24.0,-100.00,NNE,22,1.0,2.0,92,0.00,,,0.00,9.000000,,2013-01-25 15:22:00,
2013-01-25 08:32:00,26.0,24.0,-100.00,NNE,22,1.0,2.0,92,0.00,,,0.00,9.000000,,2013-01-25 15:32:00,
2013-01-25 08:42:00,26.0,24.0,-100.00,NNE,22,1.0,2.0,92,0.00,,,0.00,9.000000,,2013-01-25 15:42:00,
2013-01-25 08:52:00,26.0,24.0,-100.00,NNE,22,1.0,2.0,92,0.00,,,0.00,9.000000,,2013-01-25 15:52:00,
2013-01-25 09:22:00,28.0,25.0,-100.00,ESE,108,0.0,2.0,88,0.00,,,0.00,60.000000,,2013-01-25 16:22:00,
2013-01-25 09:32:00,28.0,25.0,-100.00,ESE,108,0.0,2.0,88,0.00,,,0.00,60.000000,,2013-01-25 16:32:00,
2013-01-25 09:43:00,28.0,25.0,-100.00,ESE,108,0.0,2.0,88,0.00,,,0.00,60.000000,,2013-01-25 16:43:00,
2013-01-25 09:52:00,28.0,25.0,-100.00,ESE,108,0.0,2.0,88,0.00,,,0.00,60.000000,,2013-01-25 16:52:00,
2013-01-25 10:22:00,30.0,25.0,-100.00,NE,42,3.0,4.0,83,0.00,,,0.00,156.000000,,2013-01-25 17:22:00,
2013-01-25 10:32:00,30.0,25.0,-100.00,NE,42,3.0,4.0,83,0.00,,,0.00,156.000000,,2013-01-25 17:32:00,
2013-01-25 10:43:00,30.0,25.0,-100.00,NE,42,3.0,4.0,83,0.00,,,0.00,156.000000,,2013-01-25 17:43:00,
2013-01-25 10:52:00,30.0,25.0,-100.00,NE,42,3.0,4.0,83,0.00,,,0.00,156.000000,,2013-01-25 17:52:00,
2013-01-25 11:23:00,34.0,27.0,-100.00,SE,131,4.0,8.0,75,0.00,,,0.00,232.000000,,2013-01-25 18:23:00,
2013-01-25 11:33:00,34.0,27.0,-100.00,SE,131,4.0,8.0,75,0.00,,,0.00,232.000000,,2013-01-25 18:33:00,
2013-01-25 11:42:00,34.0,27.0,-100.00,SE,131,4.0,8.0,75,0.00,,,0.00,232.000000,,2013-01-25 18:42:00,
2013-01-25 11:52:00,34.0,27.0,-100.00,SE,131,4.0,8.0,75,0.00,,,0.00,232.000000,,2013-01-25 18:52:00,
2013-01-25 12:22:00,35.0,28.0,-100.00,SE,132,3.0,8.0,74,0.00,,,0.00,197.000000,,2013-01-25 19:22:00,
2013-01-25 12:32:00,35.0,28.0,-100.00,SE,132,3.0,8.0,74,0.00,,,0.00,197.000000,,2013-01-25 19:32:00,
2013-01-25 12:42:00,35.0,28.0,-100.00,SE,132,3.0,8.0,74,0.00,,,0.00,197.000000,,2013-01-25 19:42:00,
2013-01-25 12:52:00,35.0,28.0,-100.00,SE,132,3.0,8.0,74,0.00,,,0.00,197.000000,,2013-01-25 19:52:00,
2013-01-25 13:22:00,35.0,26.0,-100.00,ESE,117,5.0,8.0,70,0.00,,,0.00,249.000000,,2013-01-25 20:22:00,
2013-01-25 13:32:00,35.0,26.0,-100.00,ESE,117,5.0,8.0,70,0.00,,,0.00,249.000000,,2013-01-25 20:32:00,
2013-01-25 13:42:00,35.0,26.0,-100.00,ESE,117,5.0,8.0,70,0.00,,,0.00,249.000000,,2013-01-25 20:42:00,
2013-01-25 13:52:00,35.0,26.0,-100.00,ESE,117,5.0,8.0,70,0.00,,,0.00,249.000000,,2013-01-25 20:52:00,
2013-01-25 14:23:00,37.0,25.0,-100.00,SW,223,8.0,17.0,62,0.00,,,0.00,333.000000,,2013-01-25 21:23:00,
2013-01-25 14:33:00,37.0,25.0,-100.00,SW,223,8.0,17.0,62,0.00,,,0.00,333.000000,,2013-01-25 21:33:00,
2013-01-25 14:42:00,37.0,25.0,-100.00,SW,223,8.0,17.0,62,0.00,,,0.00,333.000000,,2013-01-25 21:42:00,
2013-01-25 14:52:00,37.0,25.0,-100.00,SW,223,8.0,17.0,62,0.00,,,0.00,333.000000,,2013-01-25 21:52:00,
2013-01-25 15:22:00,36.0,26.0,-100.00,SW,228,7.0,19.0,67,0.00,,,0.00,205.000000,,2013-01-25 22:22:00,
2013-01-25 15:33:00,36.0,26.0,-100.00,SW,228,7.0,19.0,67,0.00,,,0.00,205.000000,,2013-01-25 22:33:00,
2013-01-25 15:42:00,36.0,26.0,-100.00,SW,228,7.0,19.0,67,0.00,,,0.00,205.000000,,2013-01-25 22:42:00,
2013-01-25 15:52:00,36.0,26.0,-100.00,SW,228,7.0,19.0,67,0.00,,,0.00,205.000000,,2013-01-25 22:52:00,
2013-01-25 16:22:00,34.0,25.0,-100.00,WSW,241,5.0,11.0,70,0.00,,,0.00,174.000000,,2013-01-25 23:22:00,
2013-01-25 16:32:00,34.0,25.0,-100.00,WSW,241,5.0,11.0,70,0.00,,,0.00,174.000000,,2013-01-25 23:32:00,
2013-01-25 16:42:00,34.0,25.0,-100.00,WSW,241,5.0,11.0,70,0.00,,,0.00,174.000000,,2013-01-25 23:42:00,
2013-01-25 16:52:00,34.0,25.0,-100.00,WSW,241,5.0,11.0,70,0.00,,,0.00,174.000000,,2013-01-25 23:52:00,
2013-01-25 17:22:00,32.0,25.0,-100.00,WSW,244,6.0,10.0,76,0.00,,,0.00,81.000000,,2013-01-26 00:22:00,
2013-01-25 17:32:00,32.0,25.0,-100.00,WSW,244,6.0,10.0,76,0.00,,,0.00,81.000000,,2013-01-26 00:32:00,
2013-01-25 17:42:00,32.0,25.0,-100.00,WSW,244,6.0,10.0,76,0.00,,,0.00,81.000000,,2013-01-26 00:42:00,
2013-01-25 17:52:00,32.0,25.0,-100.00,WSW,244,6.0,10.0,76,0.00,,,0.00,81.000000,,2013-01-26 00:52:00,
2013-01-25 18:22:00,30.0,25.0,-100.00,WSW,254,4.0,9.0,80,0.00,,,0.00,12.000000,,2013-01-26 01:22:00,
2013-01-25 18:32:00,30.0,25.0,-100.00,WSW,254,4.0,9.0,80,0.00,,,0.00,12.000000,,2013-01-26 01:32:00,
2013-01-25 18:42:00,30.0,25.0,-100.00,WSW,254,4.0,9.0,80,0.00,,,0.00,12.000000,,2013-01-26 01:42:00,
2013-01-25 18:52:00,30.0,25.0,-100.00,WSW,254,4.0,9.0,80,0.00,,,0.00,12.000000,,2013-01-26 01:52:00,
2013-01-25 19:22:00,29.0,25.0,-100.00,SW,221,5.0,7.0,83,0.00,,,0.00,0.000000,,2013-01-26 02:22:00,
2013-01-25 19:32:00,29.0,25.0,-100.00,SW,221,5.0,7.0,83,0.00,,,0.00,0.000000,,2013-01-26 02:32:00,
2013-01-25 19:42:00,29.0,25.0,-100.00,SW,221,5.0,7.0,83,0.00,,,0.00,0.000000,,2013-01-26 02:42:00,
2013-01-25 19:52:00,29.0,25.0,-100.00,SW,221,5.0,7.0,83,0.00,,,0.00,0.000000,,2013-01-26 02:52:00,
2013-01-25 20:22:00,29.0,25.0,-100.00,SSW,210,6.0,9.0,83,0.00,,,0.00,0.000000,,2013-01-26 03:22:00,
2013-01-25 20:32:00,29.0,25.0,-100.00,SSW,210,6.0,9.0,83,0.00,,,0.00,0.000000,,2013-01-26 03:32:00,
2013-01-25 20:43:00,29.0,25.0,-100.00,SSW,210,6.0,9.0,83,0.00,,,0.00,0.000000,,2013-01-26 03:43:00,
2013-01-25 20:52:00,29.0,25.0,-100.00,SSW,210,6.0,9.0,83,0.00,,,0.00,0.000000,,2013-01-26 03:52:00,
2013-01-25 21:21:00,29.0,26.0,-100.00,SW,217,6.0,9.0,88,0.00,,,0.00,0.000000,,2013-01-26 04:21:00,
2013-01-25 21:32:00,29.0,26.0,-100.00,SW,217,6.0,9.0,88,0.00,,,0.00,0.000000,,2013-01-26 04:32:00,
2013-01-25 21:42:00,29.0,26.0,-100.00,SW,217,6.0,9.0,88,0.00,,,0.00,0.000000,,2013-01-26 04:42:00,
2013-01-25 21:52:00,29.0,26.0,-100.00,SW,217,6.0,9.0,88,0.00,,,0.00,0.000000,,2013-01-26 04:52:00,
2013-01-25 22:23:00,29.0,26.0,-100.00,SSW,201,4.0,8.0,88,0.00,,,0.00,0.000000,,2013-01-26 05:23:00,
2013-01-25 22:33:00,29.0,26.0,-100.00,SSW,201,4.0,8.0,88,0.00,,,0.00,0.000000,,2013-01-26 05:33:00,
2013-01-25 22:41:00,29.0,26.0,-100.00,SSW,201,4.0,8.0,88,0.00,,,0.00,0.000000,,2013-01-26 05:41:00,
2013-01-25 22:52:00,29.0,26.0,-100.00,SSW,201,4.0,8.0,88,0.00,,,0.00,0.000000,,2013-01-26 05:52:00,
2013-01-25 23:21:00,28.0,24.0,-100.00,SSW,210,3.0,9.0,86,0.00,,,0.00,0.000000,,2013-01-26 06:21:00,
2013-01-25 23:32:00,28.0,24.0,-100.00,SSW,210,3.0,9.0,86,0.00,,,0.00,0.000000,,2013-01-26 06:32:00,
2013-01-25 23:41:00,28.0,24.0,-100.00,SSW,210,3.0,9.0,86,0.00,,,0.00,0.000000,,2013-01-26 06:41:00,
2013-01-25 23:51:00,28.0,24.0,-100.00,SSW,210,3.0,9.0,86,0.00,,,0.00,0.000000,,2013-01-26 06:51:00,